Weather History for Newberry, MI

Change the Weather History Date:

Wednesday, February 13, 2013

  Actual Average Record
Temperature  
Mean Temperature -3 °C -  
Max Temperature 3 °C -3 °C 7 °C (1984)
Min Temperature -9 °C -13 °C -26 °C (1929)
Degree Days  
Heating Degree Days 39    
Moisture  
Dew Point -6 °C    
Average Humidity 85    
Maximum Humidity 100    
Minimum Humidity 60    
Precipitation  
Precipitation 0.00 mm - - ()
Sea Level Pressure  
Sea Level Pressure 1004 hPa    
Wind  
Wind Speed 13 km/h (SSW)    
Max Wind Speed 19 km/h    
Max Gust Speed -    
Visibility 13 kilometers    
Events      
Averages and records for this station are not official NWS values.
T = Trace of Precipitation, MM = Missing Value Source: NWS Daily Summary

Daily Weather History Graph

Daily Weather History Graph

Search for Another Location

Airport:

Trip Planner

Search our weather history database for the weather conditions in past years. The results will help you decide how hot, cold, wet, or windy it might be!

Date:

Astronomy

Feb. 13, 2013 Rise Set
Actual Time 7:47 AM EST 6:04 PM EST
Civil Twilight 7:16 AM EST 6:36 PM EST
Nautical Twilight 6:41 AM EST 7:11 PM EST
Astronomical Twilight 6:06 AM EST 7:46 PM EST
Moon 9:00 AM EST (2/13) 10:24 PM EST (2/13)
Length of Visible Light 11h 19m
Length of Day
10h 17m
Waxing Crescent, 13% of the Moon is Illuminated
Feb 13
Waxing Crescent
Feb 17
First Quarter
Feb 25
Full
Mar 4
Last Quarter
Mar 11
New

Hourly Weather History & Observations

Time (EST) Temp. Windchill Dew Point Humidity Pressure Visibility Wind Dir Wind Speed Gust Speed Precip Events Conditions
12:14 AM -6.0 °C -12.5 °C -8.0 °C 86% 1007.7 hPa 16.1 km SSW 18.5 km/h / 5.1 m/s - N/A   Overcast
12:34 AM -6.0 °C -11.7 °C -8.0 °C 86% 1007.3 hPa 16.1 km SSW 14.8 km/h / 4.1 m/s - N/A   Mostly Cloudy
12:55 AM -6.0 °C -12.1 °C -8.0 °C 86% 1007.3 hPa 16.1 km SSW 16.7 km/h / 4.6 m/s - N/A   Mostly Cloudy
1:14 AM -6.0 °C -10.8 °C -8.0 °C 86% 1007.3 hPa 16.1 km SW 11.1 km/h / 3.1 m/s - N/A   Overcast
1:35 AM -6.0 °C -11.3 °C -8.0 °C 86% 1007.0 hPa 16.1 km SSW 13.0 km/h / 3.6 m/s - N/A   Overcast
1:55 AM -6.0 °C -11.3 °C -8.0 °C 86% 1006.7 hPa 16.1 km SW 13.0 km/h / 3.6 m/s - N/A   Overcast
2:14 AM -6.0 °C -10.8 °C -8.0 °C 86% 1006.7 hPa 16.1 km SSW 11.1 km/h / 3.1 m/s - N/A   Overcast
2:35 AM -6.0 °C -10.8 °C -8.0 °C 86% 1006.3 hPa 16.1 km SSW 11.1 km/h / 3.1 m/s - N/A   Mostly Cloudy
2:54 AM -7.0 °C -12.0 °C -9.0 °C 86% 1006.3 hPa 16.1 km SSW 11.1 km/h / 3.1 m/s - N/A   Scattered Clouds
3:15 AM -8.0 °C -11.9 °C -9.0 °C 93% 1006.0 hPa 16.1 km SSW 7.4 km/h / 2.1 m/s - N/A   Clear
3:35 AM -8.0 °C -12.6 °C -9.0 °C 93% 1005.6 hPa 16.1 km South 9.3 km/h / 2.6 m/s - N/A   Clear
3:54 AM -8.0 °C -12.6 °C -9.0 °C 93% 1005.6 hPa 16.1 km SSW 9.3 km/h / 2.6 m/s - N/A   Clear
4:15 AM -8.0 °C -12.6 °C -9.0 °C 93% 1005.3 hPa 16.1 km SSW 9.3 km/h / 2.6 m/s - N/A   Clear
4:34 AM -8.0 °C -12.6 °C -9.0 °C 93% 1005.3 hPa 16.1 km SSW 9.3 km/h / 2.6 m/s - N/A   Clear
4:54 AM -8.0 °C -13.2 °C -9.0 °C 93% 1005.0 hPa 16.1 km South 11.1 km/h / 3.1 m/s - N/A   Clear
5:15 AM -8.0 °C -13.7 °C -9.0 °C 93% 1005.0 hPa 16.1 km SSW 13.0 km/h / 3.6 m/s - N/A   Scattered Clouds
5:34 AM -7.0 °C -13.0 °C -8.0 °C 93% 1004.6 hPa 16.1 km SSW 14.8 km/h / 4.1 m/s - N/A   Mostly Cloudy
5:54 AM -7.0 °C -13.0 °C -8.0 °C 93% 1004.6 hPa 16.1 km SW 14.8 km/h / 4.1 m/s - N/A   Overcast
6:15 AM -7.0 °C -13.0 °C -8.0 °C 93% 1004.6 hPa 16.1 km SW 14.8 km/h / 4.1 m/s - N/A   Mostly Cloudy
6:34 AM -7.0 °C -12.5 °C -8.0 °C 93% 1004.6 hPa 11.3 km SW 13.0 km/h / 3.6 m/s - N/A   Mostly Cloudy
6:54 AM -8.0 °C -13.2 °C -9.0 °C 93% 1004.3 hPa 11.3 km SSW 11.1 km/h / 3.1 m/s - N/A   Scattered Clouds
7:15 AM -7.0 °C -12.5 °C -8.0 °C 93% 1003.9 hPa 11.3 km SSW 13.0 km/h / 3.6 m/s - N/A   Scattered Clouds
7:34 AM -8.0 °C -13.2 °C -8.0 °C 100% 1004.3 hPa 11.3 km WSW 11.1 km/h / 3.1 m/s - N/A   Scattered Clouds
7:55 AM -8.0 °C -13.2 °C -9.0 °C 93% 1004.3 hPa 8.0 km SSW 11.1 km/h / 3.1 m/s - N/A   Scattered Clouds
8:15 AM -9.0 °C -14.4 °C -9.0 °C 100% 1003.9 hPa 6.4 km SW 11.1 km/h / 3.1 m/s - N/A   Clear
8:34 AM -8.0 °C -13.7 °C -8.0 °C 100% 1004.3 hPa 6.4 km SW 13.0 km/h / 3.6 m/s - N/A   Scattered Clouds
8:55 AM -6.0 °C -11.3 °C -7.0 °C 93% 1003.9 hPa 8.0 km SW 13.0 km/h / 3.6 m/s - N/A   Mostly Cloudy
9:14 AM -6.0 °C -11.3 °C -7.0 °C 93% 1003.9 hPa 8.0 km SW 13.0 km/h / 3.6 m/s - N/A   Overcast
9:34 AM -6.0 °C -10.2 °C -7.0 °C 93% 1003.6 hPa 8.0 km SW 9.3 km/h / 2.6 m/s - N/A   Overcast
9:55 AM -5.0 °C -8.4 °C -6.0 °C 93% 1003.9 hPa 11.3 km WSW 7.4 km/h / 2.1 m/s - N/A   Mostly Cloudy
10:14 AM -4.0 °C -9.3 °C -6.0 °C 86% 1003.6 hPa 11.3 km WSW 14.8 km/h / 4.1 m/s - N/A   Clear
10:35 AM -3.0 °C -8.4 °C -6.0 °C 80% 1003.6 hPa 16.1 km WSW 16.7 km/h / 4.6 m/s - N/A   Clear
10:54 AM -3.0 °C -8.0 °C -6.0 °C 80% 1003.6 hPa 16.1 km SW 14.8 km/h / 4.1 m/s - N/A   Clear
11:14 AM -3.0 °C -7.2 °C -6.0 °C 80% 1003.6 hPa 16.1 km WSW 11.1 km/h / 3.1 m/s - N/A   Clear
11:35 AM -2.0 °C -6.8 °C -5.0 °C 80% 1003.6 hPa 16.1 km WSW 14.8 km/h / 4.1 m/s - N/A   Clear
11:54 AM -2.0 °C -6.0 °C -5.0 °C 80% 1003.6 hPa 16.1 km SW 11.1 km/h / 3.1 m/s - N/A   Clear
12:14 PM -1.0 °C -4.8 °C -5.0 °C 75% 1003.6 hPa 16.1 km WSW 11.1 km/h / 3.1 m/s - N/A   Clear
12:35 PM -1.0 °C -5.6 °C -5.0 °C 75% 1003.6 hPa 16.1 km WSW 14.8 km/h / 4.1 m/s - N/A   Clear
12:54 PM 0.0 °C -4.4 °C -4.0 °C 75% 1003.3 hPa 16.1 km WSW 14.8 km/h / 4.1 m/s - N/A   Clear
1:15 PM 1.0 °C -2.4 °C -4.0 °C 70% 1003.3 hPa 16.1 km WSW 11.1 km/h / 3.1 m/s - N/A   Clear
1:35 PM 1.0 °C -1.4 °C -4.0 °C 70% 1002.9 hPa 16.1 km WSW 7.4 km/h / 2.1 m/s - N/A   Clear
1:54 PM 2.0 °C - -4.0 °C 65% 1002.9 hPa 16.1 km Calm Calm - N/A   Clear
2:15 PM 2.0 °C - -4.0 °C 65% 1002.9 hPa 16.1 km Calm Calm - N/A   Clear
2:34 PM 2.0 °C -0.7 °C -3.0 °C 70% 1002.9 hPa 16.1 km WSW 9.3 km/h / 2.6 m/s - N/A   Clear
2:54 PM 2.0 °C -2.2 °C -4.0 °C 65% 1002.6 hPa 16.1 km SW 16.7 km/h / 4.6 m/s - N/A   Clear
3:15 PM 3.0 °C 0.5 °C -4.0 °C 60% 1002.6 hPa 16.1 km SW 9.3 km/h / 2.6 m/s - N/A   Clear
3:34 PM 3.0 °C 1.0 °C -4.0 °C 60% 1002.9 hPa 16.1 km SSW 7.4 km/h / 2.1 m/s - N/A   Clear
3:54 PM 3.0 °C -0.3 °C -4.0 °C 60% 1002.9 hPa 16.1 km SSW 13.0 km/h / 3.6 m/s - N/A   Clear
4:15 PM 3.0 °C 0.0 °C -4.0 °C 60% 1002.9 hPa 16.1 km South 11.1 km/h / 3.1 m/s - N/A   Clear
4:34 PM 3.0 °C -0.3 °C -3.0 °C 65% 1002.9 hPa 16.1 km South 13.0 km/h / 3.6 m/s - N/A   Clear
4:55 PM 2.0 °C -1.2 °C -3.0 °C 70% 1002.9 hPa 16.1 km South 11.1 km/h / 3.1 m/s - N/A   Clear
5:15 PM 2.0 °C -1.5 °C -3.0 °C 70% 1002.9 hPa 16.1 km SSE 13.0 km/h / 3.6 m/s - N/A   Clear
5:34 PM 1.0 °C -3.1 °C -3.0 °C 75% 1003.3 hPa 16.1 km South 14.8 km/h / 4.1 m/s - N/A   Clear
5:55 PM 0.0 °C -3.6 °C -3.0 °C 80% 1003.3 hPa 16.1 km South 11.1 km/h / 3.1 m/s - N/A   Clear
6:15 PM -1.0 °C -5.2 °C -4.0 °C 80% 1003.3 hPa 16.1 km South 13.0 km/h / 3.6 m/s - N/A   Clear
6:34 PM -2.0 °C -6.0 °C -4.0 °C 86% 1003.3 hPa 16.1 km South 11.1 km/h / 3.1 m/s - N/A   Scattered Clouds
6:55 PM -2.0 °C -6.8 °C -4.0 °C 86% 1003.3 hPa 16.1 km South 14.8 km/h / 4.1 m/s - N/A   Mostly Cloudy
7:14 PM -2.0 °C -6.8 °C -4.0 °C 86% 1003.3 hPa 16.1 km South 14.8 km/h / 4.1 m/s - N/A   Overcast
7:34 PM -2.0 °C -6.4 °C -3.0 °C 93% 1003.6 hPa 11.3 km SSW 13.0 km/h / 3.6 m/s - N/A   Overcast
7:55 PM -2.0 °C -6.4 °C -3.0 °C 93% 1003.6 hPa 11.3 km South 13.0 km/h / 3.6 m/s - N/A   Overcast
8:14 PM -2.0 °C -6.4 °C -3.0 °C 93% 1003.6 hPa 11.3 km South 13.0 km/h / 3.6 m/s - N/A   Overcast
8:34 PM -2.0 °C -6.4 °C -3.0 °C 93% 1003.6 hPa 8.0 km SSW 13.0 km/h / 3.6 m/s - N/A   Overcast
8:54 PM -2.0 °C -6.4 °C -3.0 °C 93% 1003.6 hPa 8.0 km SSW 13.0 km/h / 3.6 m/s - N/A   Overcast
9:14 PM -2.0 °C -7.2 °C -3.0 °C 93% 1003.3 hPa 8.0 km SSW 16.7 km/h / 4.6 m/s - N/A   Overcast
9:35 PM -1.0 °C -5.9 °C -2.0 °C 93% 1003.6 hPa 8.0 km SSW 16.7 km/h / 4.6 m/s - N/A   Overcast
9:54 PM -1.0 °C -5.6 °C -2.0 °C 93% 1003.6 hPa 8.0 km SSW 14.8 km/h / 4.1 m/s - N/A   Overcast
10:14 PM -1.0 °C -5.2 °C -2.0 °C 93% 1003.3 hPa 8.0 km SSW 13.0 km/h / 3.6 m/s - N/A   Overcast
10:35 PM -1.0 °C -4.8 °C -2.0 °C 93% 1003.3 hPa 8.0 km SSW 11.1 km/h / 3.1 m/s - N/A   Mostly Cloudy
10:54 PM -1.0 °C -5.6 °C -2.0 °C 93% 1003.3 hPa 6.4 km SSW 14.8 km/h / 4.1 m/s - N/A   Overcast
11:15 PM -1.0 °C -4.8 °C -2.0 °C 93% 1002.9 hPa 6.4 km South 11.1 km/h / 3.1 m/s - N/A   Overcast
11:35 PM -2.0 °C -4.9 °C -2.0 °C 100% 1002.9 hPa 6.4 km South 7.4 km/h / 2.1 m/s - N/A   Overcast
11:54 PM -2.0 °C - -2.0 °C 100% 1002.9 hPa 4.8 km Calm Calm - N/A   Mostly Cloudy